Weather History for KOWD - October, 2012

Change the Weather History Date:

Tuesday, October 2, 2012

  Actual Average Record
Temperature  
Mean Temperature 60 °F -  
Max Temperature 73 °F 65 °F 84 °F (2002)
Min Temperature 48 °F 40 °F 33 °F (2007)
Degree Days  
Heating Degree Days 4    
Growing Degree Days 10 (Base 50)    
Moisture  
Dew Point 52 °F    
Average Humidity 85    
Maximum Humidity 94    
Minimum Humidity 53    
Precipitation  
Precipitation 0.10 in - - ()
Sea Level Pressure  
Sea Level Pressure 29.99 in    
Wind  
Wind Speed 1 mph (WSW)    
Max Wind Speed 8 mph    
Max Gust Speed -    
Visibility 5 miles    
Events Fog , Rain    
Averages and records for this station are not official NWS values.
T = Trace of Precipitation, MM = Missing Value Source: NWS Daily Summary

Daily Weather History Graph

Daily Weather History Graph

Search for Another Location

Airport or City:

Trip Planner

Search our weather history database for the weather conditions in past years. The results will help you decide how hot, cold, wet, or windy it might be!

Date:

Astronomy

Oct. 02, 2012 Rise Set
Actual Time 6:43 AM EDT 6:23 PM EDT
Civil Twilight 6:15 AM EDT 6:51 PM EDT
Nautical Twilight 5:42 AM EDT 7:24 PM EDT
Astronomical Twilight 5:10 AM EDT 7:56 PM EDT
Moon 7:30 PM EDT 9:11 AM EDT
Length of Visible Light 12h 36m
Length of Day
11h 40m
Waning Gibbous, 94% of the Moon is Illuminated
Oct 2
Waning Gibbous
Oct 8
Last Quarter
Oct 15
New
Oct 21
First Quarter
Oct 29
Full

Hourly Weather History & Observations

Time (EDT) Temp. Dew Point Humidity Pressure Visibility Wind Dir Wind Speed Gust Speed Precip Events Conditions
12:04 AM 51.8 °F 46.4 °F 82% 29.95 in 10.0 mi Calm Calm - N/A   Clear
12:53 AM 51.1 °F 48.0 °F 89% 29.94 in 10.0 mi Calm Calm - N/A   Clear
1:53 AM 50.0 °F 48.0 °F 93% 29.95 in 1.2 mi Calm Calm - N/A   Partly Cloudy
1:55 AM 50.0 °F 46.4 °F 87% 29.95 in 0.8 mi Calm Calm - N/A   Mist
2:08 AM 50.0 °F 48.2 °F 94% 29.95 in 1.0 mi Calm Calm - N/A   Clear
2:13 AM 50.0 °F 48.2 °F 94% 29.95 in 3.0 mi Calm Calm - N/A   Clear
2:17 AM 50.0 °F 48.2 °F 94% 29.95 in 1.5 mi Calm Calm - N/A   Clear
2:28 AM 50.0 °F 46.4 °F 87% 29.95 in 3.0 mi Calm Calm - N/A   Clear
2:42 AM 50.0 °F 48.2 °F 94% 29.94 in 1.5 mi Calm Calm - N/A   Clear
2:53 AM 50.0 °F 48.0 °F 93% 29.94 in 0.8 mi Calm Calm - N/A   Mist
3:05 AM 50.0 °F 46.4 °F 87% 29.95 in 1.0 mi Calm Calm - N/A   Clear
3:11 AM 50.0 °F 48.2 °F 94% 29.95 in 2.5 mi Calm Calm - N/A   Partly Cloudy
3:20 AM 50.0 °F 46.4 °F 87% 29.96 in 1.2 mi Calm Calm - N/A   Partly Cloudy
3:26 AM 48.2 °F 46.4 °F 93% 29.95 in 3.0 mi Calm Calm - N/A   Partly Cloudy
3:34 AM 48.2 °F 46.4 °F 93% 29.96 in 1.5 mi Calm Calm - N/A   Partly Cloudy
3:44 AM 50.0 °F 48.2 °F 94% 29.96 in 3.0 mi Calm Calm - N/A   Partly Cloudy
3:53 AM 50.0 °F 46.9 °F 89% 29.96 in 2.5 mi Calm Calm - N/A   Partly Cloudy
4:02 AM 48.2 °F 46.4 °F 93% 29.96 in 4.0 mi Calm Calm - N/A   Partly Cloudy
4:04 AM 48.2 °F 46.4 °F 93% 29.96 in 1.8 mi Calm Calm - N/A   Clear
4:12 AM 48.2 °F 46.4 °F 93% 29.97 in 0.5 mi Calm Calm - N/A Fog Fog
4:45 AM 48.2 °F 46.4 °F 93% 29.97 in 1.0 mi Calm Calm - N/A   Scattered Clouds
4:53 AM 48.9 °F 46.0 °F 90% 29.97 in 1.0 mi Calm Calm - N/A   Mostly Cloudy
5:53 AM 52.0 °F 48.9 °F 89% 29.99 in 10.0 mi Calm Calm - N/A   Overcast
6:53 AM 55.0 °F 52.0 °F 89% 29.99 in 10.0 mi Calm Calm - N/A   Overcast
7:53 AM 57.9 °F 54.0 °F 87% 30.02 in 10.0 mi Calm Calm - N/A   Clear
8:53 AM 62.1 °F 54.0 °F 75% 30.04 in 10.0 mi Calm Calm - N/A   Mostly Cloudy
9:53 AM 66.0 °F 54.0 °F 65% 30.03 in 10.0 mi West 4.6 mph - N/A   Mostly Cloudy
10:53 AM 69.1 °F 53.1 °F 57% 30.03 in 10.0 mi SW 8.1 mph - N/A   Clear
11:53 AM 70.0 °F 54.0 °F 57% 30.04 in 10.0 mi West 5.8 mph - N/A   Clear
12:53 PM 73.0 °F 55.0 °F 53% 30.02 in 10.0 mi West 6.9 mph - N/A   Clear
1:53 PM 72.0 °F 55.0 °F 55% 30.01 in 10.0 mi SSW 5.8 mph - N/A   Overcast
2:53 PM 68.0 °F 57.0 °F 68% 30.03 in 5.0 mi West 5.8 mph - 0.01 in Rain Light Rain
3:53 PM 64.0 °F 57.9 °F 80% 30.03 in 5.0 mi WSW 4.6 mph - 0.05 in Rain Light Rain
4:53 PM 64.0 °F 60.1 °F 87% 30.04 in 4.0 mi WSW 3.5 mph - 0.03 in Rain Light Rain
5:04 PM 64.4 °F 60.8 °F 88% 30.04 in 9.0 mi West 3.5 mph - 0.00 in Rain Light Rain
5:53 PM 64.0 °F 60.1 °F 87% 30.03 in 10.0 mi Calm Calm - 0.00 in   Overcast
6:17 PM 64.4 °F 60.8 °F 88% 30.04 in 6.0 mi WSW 3.5 mph - N/A   Overcast
6:53 PM 64.0 °F 59.0 °F 84% 30.04 in 6.0 mi Calm Calm - N/A   Haze
7:53 PM 62.1 °F 59.0 °F 90% 30.04 in 9.0 mi Calm Calm - 0.01 in   Scattered Clouds
9:53 PM 62.1 °F 59.0 °F 90% 30.05 in 4.0 mi Calm Calm - N/A   Overcast
10:53 PM 62.1 °F 59.0 °F 90% 30.06 in 4.0 mi Calm Calm - N/A   Overcast
11:53 PM 62.1 °F 60.1 °F 93% 30.06 in 5.0 mi Calm Calm - N/A   Overcast